Regional Weather Roundup
Issued by NWS

Home | Current Version | Previous Version | Text Only | Print | Product List | Glossary Off
Versions: 1 2 3 4 5 6 7 8 9 10 11 12 13 14 15 16 17 18 19 20 21 22 23 24 25 26 27

000
ASUS45 KBOU 140510
RWRCO

WEATHER ROUNDUP FOR COLORADO
NATIONAL WEATHER SERVICE DENVER/BOULDER CO
1000 PM MST WED DEC 13 2017

NOTE: "FAIR" INDICATES FEW OR NO CLOUDS BELOW 12000 FEET WITH NO
SIGNIFICANT WEATHER AND/OR OBSTRUCTIONS TO VISIBILITY.

COZ001>005-013-030-031-140600-
...NORTHWEST COLORADO...

CITY           SKY/WX    TMP DP  RH WIND       PRES   REMARKS
CRAIG          SNOW      30  29  96 S3        30.13S VSB 1/2
HAYDEN         LGT SNOW  30  28  93 SW3       30.14R FOG
MEEKER         LGT SNOW  33  28  81 CALM      30.11R
RABBIT EARS PA LGT SNOW  19  19 100 W7        30.08F WCI  10
STEAMBOAT SPGS CLOUDY    29  29  99 CALM      30.10S
WALDEN         CLOUDY    25  23  93 E5        30.11S WCI  19
$$

COZ006>008-011-140600-
...WEST CENTRAL VALLEYS...

CITY           SKY/WX    TMP DP  RH WIND       PRES   REMARKS
GRAND JUNCTION CLOUDY    37  14  38 W10       30.07R
MONTROSE       FAIR      34  14  43 SW3       30.05F
EAGLE          CLOUDY    29  19  66 NE3       30.08R
RIFLE          CLOUDY    40  24  53 NW17G26   30.08R
DELTA          CLOUDY    37  13  36 SW3       30.04R
NUCLA          MOCLDY    37   5  25 N3        30.07R
$$

COZ017>023-064>068-140600-
...SOUTHWEST COLORADO...

CITY           SKY/WX    TMP DP  RH WIND       PRES   REMARKS
DURANGO        CLOUDY    31   6  35 NE5       30.01S WCI  26
CORTEZ         FAIR      30   8  39 E3        30.03S
PAGOSA SPRINGS CLOUDY    33   4  29 NE3       30.03S
TELLURIDE      CLOUDY    35   2  24 CALM      30.07F
WOLF CREEK PAS CLOUDY    27  -4  26 SW6       30.15R WCI  20
$$

COZ009-010-012-014-032>034-037-058>063-140600-
...CENTRAL COLORADO...

CITY           SKY/WX    TMP DP  RH WIND       PRES   REMARKS
ASPEN          CLOUDY    35  13  40 VRB6      30.02R WCI  30
BUENA VISTA    CLOUDY    35   5  28 SE12      30.07R WCI  27
COPPER MTN     NOT AVBL
BERTHOUD PASS  LGT SNOW  10   0  61 S12       30.08F WCI  -4
COTTONWOOD PAS CLOUDY    37  21  52 N8        30.08R
GUNNISON       FAIR      32  13  45 SW5       30.04F WCI  27
KREMMLING      CLOUDY    34  25  69 N8        30.10R WCI  27
LEADVILLE      CLOUDY    29  13  51 CALM      30.06R
MONARCH PASS   CLOUDY    25   5  42 W13       30.22S WCI  13
SALIDA         CLOUDY    38   7  27 SE9       30.14R
SUNLIGHT       CLOUDY    25   9  50 SW5       30.12S WCI  19
WILKERSON PASS CLOUDY    19   5  53 E10G18    30.14R WCI   8
$$

COZ069>075-140600-
...SAN LUIS VALLEY/SANGRE DE CRISTO MOUNTAINS...

CITY           SKY/WX    TMP DP  RH WIND       PRES   REMARKS
ALAMOSA        CLOUDY    31   6  35 E6        29.98R WCI  25
DEL NORTE      CLOUDY    36   6  27 W7G16     30.02R
LA VETA PASS   CLOUDY    27  10  50 N18G25      N/A  WCI  13
SAGUACHE       CLOUDY    41  12  30 NW10      30.02S
$$

COZ035-036-038>040-140600-
...NORTHERN COLORADO FRONT RANGE...

CITY           SKY/WX    TMP DP  RH WIND       PRES   REMARKS
DENVER INTL AP CLOUDY    38  13  35 N5        30.13R
DMNS CITY PARK NOT AVBL
AURORA         CLOUDY    37  13  36 NE3       30.13R
FRONT RANGE AP CLOUDY    40  14  34 NE8       30.14R
ERIE MUNI ARPT CLOUDY    38  14  37 CALM      30.18R
BOULDER MUN AP CLOUDY    41  14  33 CALM      30.12R
CENTENNIAL     CLOUDY    39  14  36 CALM      30.12R
BROOMFIELD     MOCLDY    41  12  30 NE3       30.14R
FORT COLLINS   CLOUDY    38  24  57 N16       30.14R
LONGMONT       CLOUDY    39  18  41 CALM      30.15R
$$

COZ041-046-047-076>085-087-088-140600-
...PIKES PEAK/PALMER DIVIDE AND SOUTHERN FOOTHILLS...

CITY           SKY/WX    TMP DP  RH WIND       PRES   REMARKS
COLO. SPRINGS  CLOUDY    38  12  34 NE16      30.11R
A. F. ACADEMY  CLOUDY    36   9  32 NW10      30.11R
SCHRIEVER AFB  MOCLDY    35  10  34 NE7       30.11R WCI  30
CHEYENNE MTN   MOCLDY    35   9  33 NW6       30.06R WCI  30
ELLICOTT         N/A    N/A N/A N/A NE10      30.09R
FALCON         CLOUDY    34   9  35 N8        30.12R WCI  27
FORT CARSON    CLOUDY    37  11  33 N8        30.10R
LIMON          CLOUDY    34  14  43 N6        30.09R WCI  29
MONUMENT HILL  FAIR      30  12  47 CALM      30.13R
CANON CITY     CLOUDY    37  14  38 SE5       30.08R
WALSENBURG     CLOUDY    41  12  30 N7        30.08R
TRINIDAD       CLOUDY    33  14  45 NW5       30.03R WCI  29
$$

COZ042>045-048>051-090-091-140600-
...NORTHEAST COLORADO...

CITY           SKY/WX    TMP DP  RH WIND       PRES   REMARKS
GREELEY ARPT   FAIR      37  25  61 N16       30.15R
AKRON          CLOUDY    37  14  38 N10       30.12R
BURLINGTON     CLOUDY    38  16  40 N9        30.09R
WRAY           CLOUDY    37  18  44 N7        30.12R
YUMA           CLOUDY    36  16  44 N8        30.11R
STERLING       CLOUDY    39  19  45 NE13      30.11R
HOLYOKE        FAIR      41  21  45 N16       30.11R
FORT MORGAN    CLOUDY    40  13  33 NE10      30.13R
$$

COZ086-089-092>099-140600-
...SOUTHEAST COLORADO...

CITY           SKY/WX    TMP DP  RH WIND       PRES   REMARKS
PUEBLO         FAIR      41  12  30 N8        30.08R
LA JUNTA       FAIR      42  13  30 NE5       30.07R
LAMAR          FAIR      43  14  31 NE7       30.05R
SPRINGFIELD      N/A     39  14  36 NE7       30.05R
$$




USA.gov is the U.S. government's official web portal to all federal, state and local government web resources and services.